Regional Weather Roundup
Issued by NWS

Home | Current Version | Previous Version | Graphics & Text | Print | Product List | Glossary On
Versions: 1 2 3 4 5 6 7 8 9 10 11 12 13 14 15 16 17 18 19 20 21 22 23 24 25 26 27 28 29 30 31 32 33 34 35 36 37 38 39 40 41 42 43 44 45 46 47 48 49 50
000
ASUS43 KDTX 250810
RWRMI
MICHIGAN HOURLY REGIONAL WEATHER ROUNDUP
NATIONAL WEATHER SERVICE DETROIT/PONTIAC MI
300 AM EST THU DEC 25 2014

NOTE: "FAIR" INDICATES FEW OR NO CLOUDS BELOW 12,000 FEET WITH NO
SIGNIFICANT WEATHER AND/OR OBSTRUCTION TO VISIBILITY.

MIZ047>049-052>055-059>063-066>070-074>076-081>083-250900-
SOUTHEAST LOWER MICHIGAN

CITY           SKY/WX    TMP DP  RH WIND       PRES   REMARKS
ADRIAN         CLOUDY    37  34  89 W13G23    29.63R WCI  29
ALMA           CLOUDY    35  34  96 W13G21    29.54R WCI  26
ANN ARBOR      CLOUDY    38  35  89 SW15      29.59R WCI  29
BAD AXE        CLOUDY    33  33 100 W16G22    29.47R WCI  23
CARO           CLOUDY    34  33  96 SW12G17   29.49R WCI  26
DETROIT CITY   CLOUDY    40  33  76 SW13      29.57R WCI  32
DETROIT        CLOUDY    38  35  89 SW17G25   29.60R WCI  28
FLINT          CLOUDY    37  34  89 SW13      29.55R WCI  29
GROSSE ILE     CLOUDY    37  34  87 SW13      29.59R WCI  29
HILLSDALE      MIX PCPN  36  36 100 W13G23    29.61R WCI  27
HOWELL         CLOUDY    34  34  99 SW14      29.56R WCI  25

CITY           SKY/WX    TMP DP  RH WIND       PRES   REMARKS
JACKSON        CLOUDY    36  34  92 W12G17    29.59R FOG     WCI  28
LAMBERTVILLE   CLOUDY    37  34  87 SW10G21   29.63R WCI  30
LANSING        CLOUDY    36  34  92 SW13      29.57R WCI  27
LAPEER         CLOUDY    35  34  95 W13G25    29.52R WCI  26
MASON          CLOUDY    34  32  93 SW9       29.57R WCI  26
MONROE         CLOUDY    37  36  93 SW15G22   29.60R WCI  28
MT. CLEMENS    CLOUDY    38  38 100 SW15      29.54R WCI  30
PONTIAC        CLOUDY    36  34  92 W14G22    29.54R WCI  27
PORT HOPE        N/A     35  32  88 W12G22    29.42R WCI  27
PORT HURON     CLOUDY    37  34  87 SW9       29.53R WCI  31
TRI CITIES     CLOUDY    36  33  89 W16       29.51R WCI  26
TROY           CLOUDY    39  35  84 SW12G17   29.58R WCI  32
SAGINAW HB     CLOUDY    36  36 100 SW15      29.50R WCI  26
$$
MIZ043>046-050>051-056>058-064>065-071>073-077>080-250900-
SOUTHWEST LOWER MICHIGAN

CITY           SKY/WX    TMP DP  RH WIND       PRES   REMARKS
BATTLE CREEK   LGT RAIN  36  33  89 W14       29.62R WCI  27
BENTON HARBOR  CLOUDY    37  33  85 W13G25    29.67R WCI  29
BIG RAPIDS     CLOUDY    34  34  99 W14       29.52R WCI  25
COLDWATER      LGT SNOW  35  34  96 MISG      29.63R
FREMONT        CLOUDY    35  33  95 W8        29.56R WCI  28
HOLLAND        CLOUDY    39  32  76 W14G25    29.62R WCI  31
GRAND RAPIDS   CLOUDY    36  35  96 W14       29.58R WCI  27
IONIA          DRIZZLE   37  36  96 W13G20    29.56R WCI  28
KALAMAZOO      LGT RAIN  37  34  89 W12       29.63R WCI  29
LUDINGTON      CLOUDY    36  32  87 W9G18     29.57R WCI  29
MARSHALL       LGT RAIN  34  33  96 W10G18    29.60R WCI  26
MOUNT PLEASANT CLOUDY    35  33  94 W13G22    29.51R WCI  26
MUSKEGON       CLOUDY    38  32  79 W16G24    29.60R WCI  29
SOUTH HAVEN    CLOUDY    38  33  80 W15       29.64R WCI  30
$$
MIZ016>042-250900-
NORTHERN LOWER MICHIGAN

CITY           SKY/WX    TMP DP  RH WIND       PRES   REMARKS
ALPENA         CLOUDY    34  33  96 W12G22    29.37R WCI  25
BEAVER ISLAND  CLOUDY    34  32  92 W14G21    29.44R WCI  24
BELLAIRE       CLOUDY    35  32  88 W7        29.47R WCI  29
CADILLAC       CLOUDY    32  30  93 W15G23    29.47R WCI  22
CHARLEVOIX     CLOUDY    34  32  91 W20G30    29.47R WCI  23
FRANKFORT      CLOUDY    35  31  86 NW12G24   29.52R WCI  27
GAYLORD        LGT SNOW  31  31 100 W13G22    29.41R VSB 1   WCI  21
GRAYLING       LGT SNOW  33  33 100 W13G22    29.45R WCI  24
HARBOR SPRINGS CLOUDY    33  31  90 W12G18    29.42R WCI  25
HOUGHTON LAKE  CLOUDY    33  30  88 W15G23    29.45R WCI  23
MANISTEE       CLOUDY    36  28  75 NW17G24   29.55R WCI  25
OSCODA         CLOUDY    34  33  96 W12       29.40R WCI  26
PELLSTON       CLOUDY    34  31  88 W15G28    29.42R WCI  24
ROGERS CITY    CLOUDY    34  34 100 W12G24    29.37R WCI  25
TRAVERSE CITY  CLOUDY    35  31  85 W14       29.49R WCI  26
$$
MIZ007>008-015-250900-
EASTERN UPPER MICHIGAN

CITY           SKY/WX    TMP DP  RH WIND       PRES   REMARKS
KINROSS        CLOUDY    34  34 100 W14G23    29.33R WCI  24
MACKINAC ISLAN CLOUDY    33  33 100 W18       29.37R WCI  22
NEWBERRY       CLOUDY    32  31  98 W15       29.38R WCI  21
S. S. MARIE    LGT SNOW  33  30  88 W14G22    29.31R FOG     WCI  23
MUNISING         N/A     36  30  79 NW12G18   29.44R WCI  28
$$
MIZ004>006-011>014-085-250900-
CENTRAL UPPER MICHIGAN

CITY           SKY/WX    TMP DP  RH WIND       PRES   REMARKS
MANISTIQUE     CLOUDY    32  32 100 W12       29.43R WCI  23
ESCANABA       CLOUDY    34  27  75 W9        29.48R WCI  26
MENOMINEE      MOCLDY    32  28  86 W5        29.53R WCI  27
SAWYER-GWINN   MOCLDY    30  28  89 W9        29.45R WCI  22
$$
MIZ001>003-009>011-084-250900-
WESTERN UPPER MICHIGAN

CITY           SKY/WX    TMP DP  RH WIND       PRES   REMARKS
IRON MOUNTAIN  CLOUDY    32  28  85 W7        29.49R WCI  26
HOUGHTON       CLOUDY    32  29  88 W10       29.45R WCI  24
COPPER HARBOR    N/A     35  29  78 N22       29.43R WCI  23
IRONWOOD       CLOUDY    32  30  93 W7        29.48R WCI  26
$$

ABBREVIATIONS USED IN REMARKS
   TC - TEMPERATURE IN CELSIUS
  WCI - WIND CHILL INDEX
   HX - HEAT INDEX
  VSB - VISIBILITY



USA.gov is the U.S. government's official web portal to all federal, state and local government web resources and services.